Location: Unspecified
(50.7693°N, 0.0000°E)
Time: 18:54:16
(UTC+00:00)

SR - Pass Details

Date: 04 July 2019
Orbit: 580 x 876 km, 66.7° (Epoch: 21 July)

Event Time Altitude Azimuth Distance (km) Brightness Sun altitude
Rises 05:10:55 0° 309° (NW) 2,896 ? 9.6°
Reaches altitude 10° 05:14:51 10° 344° (NNW) 2,052 ? 10.2°
Maximum altitude 05:16:21 11° 3° (N) 1,987 ? 10.4°
Drops below altitude 10° 05:17:53 10° 22° (NNE) 2,107 ? 10.6°
Sets 05:22:06 0° 56° (NE) 3,108 ? 11.2°
